Find Iridium Next SV131

NORAD ID: 43079 Int'l Des: 2017-083 Owner: IRIDS Country: US Constellation: Iridium NEXT operational
LEOCIRCULARPOLAR

当前视图

正在加载3D地球...

About Iridium Next SV131

Iridium Next SV131 (NORAD 43079) is a Iridium NEXT constellation satellite launched Dec 23, 2017 by IRIDS of US. It operates in LEO, CIRCULAR, POLAR orbit with a mass of 860.00 kg.

关于 Iridium Next SV131

正在加载描述...

即将过境

Passes for default location (London). Set your location on the main map for personalized predictions.

高度历史

Loading altitude history...

两行轨道根数

1 43079U 17083K 26194.84119498 .00000068 00000-0 17373-4 0 9997
2 43079 86.3991 311.0359 0002252 93.1963 266.9490 14.34217941447923
Epoch: Jul 13, 2026 • Age: 20 hours

当前状态

高度 807.8 km
远地点 / 近地点 N/A
速度 7.45 km/s
星下点 -83.69°S, 4.95°W
发射日期 Dec 23, 2017
运行时间 8.5 years
类型 communications

技术详情

分类 Payload
质量 860.00 kg
干质量 700.00 kg
总质量 860.00 kg
长度 3.10 m
直径 1.50 m
跨度 9.40 m
形状 Half Hex Prism+2 pan
制造商 OATKGA
平台类型 EliteBus
阶段状态 In Orbit
所有者/国家 IRIDS/US

Most Searched